This is the latest recevied weather packets stored in our database for station/object SP1BMW-13. If no packets are shown the sender has not sent any weather packets the latest 10 day(s).
| Time | Temp. | Humidity | Pressure | Rain* | Wind** | Luminosity | Snow |
|---|---|---|---|---|---|---|---|
| 1777644742 | 23.33° C | 32% | 1025.5 hPa | 0 mm | 0.89 m/s, 293° | 485 W/m² | - |
| 1777644682 | 23.33° C | 31% | 1025.5 hPa | 0 mm | 0.45 m/s, 2° | 487 W/m² | - |
| 1777644623 | 23.33° C | 30% | 1025.7 hPa | 0 mm | 1.79 m/s, 52° | 490 W/m² | - |
| 1777644562 | 23.33° C | 30% | 1025.7 hPa | 0 mm | 0.89 m/s, 3° | 491 W/m² | - |
| 1777644502 | 23.33° C | 31% | 1025.6 hPa | 0 mm | 1.79 m/s, 27° | 492 W/m² | - |
| 1777644442 | 23.33° C | 31% | 1025.4 hPa | 0 mm | 0.45 m/s, 37° | 495 W/m² | - |
| 1777644382 | 23.33° C | 30% | 1025.6 hPa | 0 mm | 0.89 m/s, 23° | 498 W/m² | - |
| 1777644323 | 23.33° C | 31% | 1025.5 hPa | 0 mm | 1.34 m/s, 44° | 499 W/m² | - |
| 1777644263 | 23.33° C | 31% | 1025.8 hPa | 0 mm | 0.89 m/s, 335° | 501 W/m² | - |
| 1777644202 | 23.33° C | 30% | 1025.7 hPa | 0 mm | 0.89 m/s, 306° | 504 W/m² | - |
| 1777644143 | 23.33° C | 31% | 1025.6 hPa | 0 mm | 1.34 m/s, 316° | 506 W/m² | - |
| 1777644086 | 23.33° C | 30% | 1025.5 hPa | 0 mm | 0.89 m/s, 30° | 507 W/m² | - |
| 1777644023 | 23.33° C | 33% | 1025.7 hPa | 0 mm | 0 m/s | 507 W/m² | - |
| 1777643963 | 23.33° C | 29% | 1025.7 hPa | 0 mm | 0.89 m/s, 1° | 509 W/m² | - |
| 1777643902 | 23.33° C | 32% | 1025.8 hPa | 0 mm | 0.45 m/s, 8° | 513 W/m² | - |
| 1777643842 | 23.33° C | 32% | 1025.6 hPa | 0 mm | 0.45 m/s, 67° | 514 W/m² | - |
| 1777643782 | 23.33° C | 31% | 1025.6 hPa | 0 mm | 0.45 m/s, 46° | 516 W/m² | - |
| 1777643722 | 23.33° C | 32% | 1026 hPa | 0 mm | 0.89 m/s, 38° | 517 W/m² | - |
| 1777643662 | 23.33° C | 31% | 1025.6 hPa | 0 mm | 1.34 m/s, 23° | 517 W/m² | - |
| 1777643602 | 23.33° C | 31% | 1025.7 hPa | 0 mm | 1.79 m/s, 46° | 519 W/m² | - |
| 1777643542 | 23.33° C | 31% | 1025.7 hPa | 0 mm | 0 m/s | 521 W/m² | - |
| 1777643482 | 23.33° C | 34% | 1025.7 hPa | 0 mm | 0.45 m/s, 50° | 521 W/m² | - |
| 1777643422 | 23.33° C | 31% | 1025.8 hPa | 0 mm | 0.45 m/s, 56° | 523 W/m² | - |
| 1777643362 | 23.33° C | 31% | 1025.7 hPa | 0 mm | 1.79 m/s, 41° | 523 W/m² | - |
| 1777643302 | 23.33° C | 30% | 1025.6 hPa | 0 mm | 1.79 m/s, 56° | 524 W/m² | - |
* Rain latest hour (hover to see other rain measurements)
** Current wind speed in m/s (hover to see current wind gust speed)